Hourly Weather Dzierzbotki

Today, 16 May, Sunday

Time Temperature Precipitation Wind Pressure Humidity
00:00 +10°C° 0 mm 2 mps 742 mmHg 92%
01:00 +10°C° 0 mm 2 mps 742 mmHg 92%
02:00 +10°C° 0.3 mm 2 mps 741 mmHg 93%
03:00 +10°C° 0.3 mm 2 mps 741 mmHg 94%
04:00 +10°C° 0.3 mm 2 mps 741 mmHg 95%
05:00 +12°C° 0.5 mm 2 mps 741 mmHg 93%
06:00 +11°C° 0.5 mm 3 mps 741 mmHg 92%
07:00 +12°C° 0 mm 3 mps 741 mmHg 91%
08:00 +13°C° 0.3 mm 3 mps 741 mmHg 86%
09:00 +14°C° 0.3 mm 3 mps 741 mmHg 82%
10:00 +16°C° 0.3 mm 3 mps 741 mmHg 78%
11:00 +15°C° 0.5 mm 4 mps 741 mmHg 77%
12:00 +15°C° 0.5 mm 4 mps 741 mmHg 77%
13:00 +15°C° 0.5 mm 5 mps 741 mmHg 76%
14:00 +15°C° 0.3 mm 5 mps 741 mmHg 74%
15:00 +15°C° 0.3 mm 4 mps 741 mmHg 72%
16:00 +15°C° 0.3 mm 4 mps 740 mmHg 71%
17:00 +14°C° 0 mm 3 mps 740 mmHg 74%
18:00 +13°C° 0 mm 3 mps 740 mmHg 78%
19:00 +13°C° 0 mm 2 mps 740 mmHg 81%
20:00 +13°C° 0 mm 2 mps 741 mmHg 83%
21:00 +12°C° 0 mm 2 mps 741 mmHg 85%
22:00 +10°C° 0 mm 2 mps 741 mmHg 87%
23:00 +9°C° 0 mm 2 mps 741 mmHg 88%

Tomorrow, 17 May, Monday

Time Temperature Precipitation Wind Pressure Humidity
00:00 +9°C° 0 mm 3 mps 741 mmHg 90%
01:00 +9°C° 0 mm 3 mps 741 mmHg 91%
02:00 +8°C° 0 mm 3 mps 741 mmHg 90%
03:00 +8°C° 0 mm 3 mps 741 mmHg 90%
04:00 +8°C° 0 mm 3 mps 741 mmHg 90%
05:00 +9°C° 0 mm 2 mps 741 mmHg 86%
06:00 +12°C° 0 mm 2 mps 741 mmHg 82%
07:00 +13°C° 0 mm 2 mps 741 mmHg 79%
08:00 +14°C° 0 mm 2 mps 741 mmHg 78%
09:00 +14°C° 0 mm 2 mps 741 mmHg 78%
10:00 +15°C° 0 mm 2 mps 741 mmHg 77%
11:00 +14°C° 1 mm 2 mps 741 mmHg 83%
12:00 +12°C° 1 mm 3 mps 741 mmHg 88%
13:00 +11°C° 1 mm 3 mps 741 mmHg 93%
14:00 +11°C° 1 mm 3 mps 741 mmHg 94%
15:00 +11°C° 1 mm 3 mps 741 mmHg 94%
16:00 +11°C° 1 mm 3 mps 741 mmHg 95%
17:00 +11°C° 1.3 mm 3 mps 741 mmHg 96%
18:00 +10°C° 1.3 mm 2 mps 741 mmHg 96%
19:00 +10°C° 1.3 mm 2 mps 741 mmHg 97%
20:00 +10°C° 1.8 mm 2 mps 741 mmHg 97%
21:00 +10°C° 1.8 mm 2 mps 741 mmHg 97%
22:00 +11°C° 1.8 mm 1 mps 741 mmHg 97%
23:00 +10°C° 0.7 mm 2 mps 741 mmHg 97%

Day after tomorrow, 18 May, Tuesday

Time Temperature Precipitation Wind Pressure Humidity
00:00 +10°C° 0.7 mm 2 mps 741 mmHg 97%
01:00 +9°C° 0.7 mm 2 mps 742 mmHg 97%
02:00 +9°C° 0.1 mm 3 mps 742 mmHg 97%
03:00 +8°C° 0.1 mm 4 mps 742 mmHg 97%
04:00 +8°C° 0.1 mm 5 mps 742 mmHg 97%
05:00 +8°C° 0 mm 5 mps 742 mmHg 95%
06:00 +9°C° 0 mm 6 mps 742 mmHg 94%
07:00 +9°C° 0 mm 6 mps 743 mmHg 92%
08:00 +10°C° 0 mm 6 mps 743 mmHg 89%
09:00 +10°C° 0 mm 6 mps 743 mmHg 87%
10:00 +11°C° 0 mm 6 mps 743 mmHg 84%
11:00 +11°C° 0.1 mm 6 mps 743 mmHg 82%
12:00 +13°C° 0.1 mm 6 mps 744 mmHg 79%
13:00 +14°C° 0.1 mm 5 mps 744 mmHg 77%
14:00 +14°C° 0.3 mm 5 mps 744 mmHg 76%
15:00 +14°C° 0.3 mm 5 mps 744 mmHg 75%
16:00 +14°C° 0.3 mm 5 mps 744 mmHg 75%
17:00 +13°C° 0.3 mm 4 mps 744 mmHg 79%
18:00 +12°C° 0.3 mm 4 mps 745 mmHg 84%
19:00 +11°C° 0.3 mm 3 mps 745 mmHg 88%
20:00 +11°C° 0 mm 3 mps 745 mmHg 89%
21:00 +10°C° 0 mm 3 mps 745 mmHg 91%
22:00 +9°C° 0 mm 3 mps 745 mmHg 92%
23:00 +8°C° 0 mm 3 mps 745 mmHg 92%

19 May, Wednesday

Time Temperature Precipitation Wind Pressure Humidity
00:00 +8°C° 0 mm 3 mps 746 mmHg 93%
01:00 +7°C° 0 mm 3 mps 746 mmHg 94%
02:00 +7°C° 0 mm 3 mps 746 mmHg 94%
03:00 +7°C° 0 mm 3 mps 746 mmHg 95%
04:00 +7°C° 0 mm 3 mps 746 mmHg 96%
05:00 +12°C° 0 mm 5 mps 747 mmHg 83%
06:00 +10°C° 0 mm 5 mps 747 mmHg 87%
07:00 +9°C° 0 mm 5 mps 747 mmHg 90%
08:00 +11°C° 0.2 mm 4 mps 747 mmHg 86%
09:00 +12°C° 0.2 mm 4 mps 747 mmHg 83%
10:00 +13°C° 0.2 mm 5 mps 747 mmHg 80%
11:00 +12°C° 0.1 mm 5 mps 747 mmHg 79%
12:00 +12°C° 0.1 mm 5 mps 747 mmHg 77%
13:00 +13°C° 0.1 mm 5 mps 747 mmHg 75%
14:00 +10°C° 0.3 mm 5 mps 747 mmHg 85%
15:00 +12°C° 0.3 mm 4 mps 747 mmHg 81%
16:00 +13°C° 0.3 mm 4 mps 746 mmHg 76%
17:00 +12°C° 0.1 mm 3 mps 746 mmHg 80%
18:00 +12°C° 0.1 mm 3 mps 746 mmHg 84%
19:00 +11°C° 0.1 mm 3 mps 746 mmHg 88%
20:00 +10°C° 0 mm 3 mps 746 mmHg 90%
21:00 +9°C° 0 mm 3 mps 746 mmHg 92%
22:00 +8°C° 0 mm 3 mps 746 mmHg 95%
23:00 +8°C° 0.2 mm 3 mps 746 mmHg 95%

20 May, Thursday

Time Temperature Precipitation Wind Pressure Humidity
00:00 +7°C° 0.2 mm 3 mps 747 mmHg 96%
01:00 +7°C° 0.2 mm 3 mps 747 mmHg 97%
02:00 +7°C° 0.4 mm 3 mps 747 mmHg 96%
03:00 +7°C° 0.4 mm 3 mps 747 mmHg 95%
04:00 +7°C° 0.4 mm 3 mps 747 mmHg 94%
05:00 +7°C° 0 mm 4 mps 748 mmHg 90%
06:00 +7°C° 0 mm 4 mps 748 mmHg 85%
07:00 +8°C° 0 mm 5 mps 748 mmHg 81%
08:00 +9°C° 0 mm 5 mps 748 mmHg 75%
09:00 +12°C° 0 mm 5 mps 748 mmHg 69%
10:00 +13°C° 0 mm 6 mps 748 mmHg 62%
11:00 +14°C° 0.1 mm 6 mps 748 mmHg 60%
12:00 +15°C° 0.1 mm 5 mps 748 mmHg 57%
13:00 +15°C° 0.1 mm 5 mps 748 mmHg 55%
14:00 +15°C° 0.2 mm 5 mps 748 mmHg 60%
15:00 +14°C° 0.2 mm 5 mps 748 mmHg 66%
16:00 +13°C° 0.2 mm 5 mps 749 mmHg 72%
17:00 +12°C° 0.2 mm 5 mps 749 mmHg 75%
18:00 +11°C° 0.2 mm 4 mps 749 mmHg 77%
19:00 +11°C° 0.2 mm 3 mps 749 mmHg 80%
20:00 +10°C° 0 mm 3 mps 749 mmHg 84%
21:00 +8°C° 0 mm 3 mps 749 mmHg 88%
22:00 +7°C° 0 mm 3 mps 750 mmHg 91%
23:00 +7°C° 0 mm 3 mps 750 mmHg 92%

21 May, Friday

Time Temperature Precipitation Wind Pressure Humidity
00:00 +5°C° 0 mm 3 mps 750 mmHg 93%
01:00 +5°C° 0 mm 4 mps 750 mmHg 94%
02:00 +4°C° 0 mm 3 mps 750 mmHg 95%
03:00 +4°C° 0 mm 3 mps 750 mmHg 96%
04:00 +4°C° 0 mm 3 mps 750 mmHg 96%
05:00 +5°C° 0 mm 4 mps 750 mmHg 92%
06:00 +6°C° 0 mm 4 mps 750 mmHg 87%
07:00 +7°C° 0 mm 5 mps 751 mmHg 82%
08:00 +8°C° 0.1 mm 5 mps 751 mmHg 77%
09:00 +9°C° 0.1 mm 5 mps 751 mmHg 72%
10:00 +10°C° 0.1 mm 5 mps 751 mmHg 67%
11:00 +10°C° 0.1 mm 5 mps 750 mmHg 63%
12:00 +12°C° 0.1 mm 5 mps 750 mmHg 59%
13:00 +12°C° 0.1 mm 4 mps 750 mmHg 55%
14:00 +13°C° 0 mm 4 mps 750 mmHg 56%
15:00 +13°C° 0 mm 4 mps 749 mmHg 56%
16:00 +14°C° 0 mm 4 mps 749 mmHg 57%
17:00 +13°C° 0 mm 4 mps 749 mmHg 63%
18:00 +12°C° 0 mm 3 mps 749 mmHg 69%
19:00 +11°C° 0 mm 3 mps 749 mmHg 75%
20:00 +10°C° 0 mm 3 mps 749 mmHg 76%
21:00 +10°C° 0 mm 3 mps 749 mmHg 76%
22:00 +9°C° 0 mm 3 mps 749 mmHg 77%
23:00 +9°C° 0 mm 3 mps 749 mmHg 79%
Show more

We Need Your Consent

Meteoprog and our Service Providers may store and access personal data such as cookies, device identifiers or other similar technologies on your device and process such data to personalise content and ads, as well as provide social media features and to analyse the traffic.

  • Store and/or access information on your device

    Cookies, device identifiers or other information can be stored or accessed on your device for the purposes indicated above.

  • Personalised ads and content, ad and content measurement, audience insights, and products development

    Ads and content can be personalised based on a profile. More data can be added to better personalise ads and content. Ad and content performance can be measured. Insights about the audience who saw the ads and content can be derived. Such data can be used to develop or improve user’s experience, systems and software.

By clicking ‘I Agree’ you will allow the use of indicated cookies, device identifiers, web beacons or other similar technologies. Your settings can be changed in the browser on your device.

For certain purposes, legitimate interests may be relied on, rather than consent. You can read more about this in our Privacy and Cookie Policy.